Regional Weather Roundup
Issued by NWS Midland/Odessa, TX

Skip options and go directly to product.
Home | Oldest Version | Previous Version | Current Version | All | Graphics & Text | Save Text | Print | Product List | Glossary On

Skip product version selection by date and time.   
720
ASUS44 KMAF 221410
RWRMAF
MIDLAND AREA WEATHER ROUNDUP
NATIONAL WEATHER SERVICE MIDLAND TX
800 AM CST SUN JAN 22 2017

...IN SOUTHWEST TEXAS AND SOUTHEAST NEW MEXICO...

CITY           SKY/WX    TMP DP  RH WIND       PRES   REMARKS
ALPINE         CLEAR     41  14  32 W13       30.08R WCI  34
ANDREWS        FAIR      41  23  48 NW15      29.93R WCI  33
ARTESIA        CLEAR     39  21  48 SE5       29.98R WCI  36
BIG SPRING     PTCLDY    44  27  52 W15       29.89R WCI  37
CARLSBAD       CLEAR     42  20  41 W15       29.97R WCI  34
DRYDEN           N/A     46  22  38 SW14      29.95R WCI  40
FORT STOCKTON  CLEAR     45  23  42 W25G38    29.97R WCI  36
GUAD PASS      CLEAR     30  23  75 SW16G26   30.03R WCI  19
HOBBS          CLEAR     37  23  56 W15G22    29.93R WCI  28
MARFA          CLEAR     36  22  56 NW21      30.09R WCI  25
MIDLAND AIRPK  CLEAR     46  24  40 W20G26    29.92R WCI  39
MIDLAND INTL   CLEAR     45  23  42 W18       29.91R WCI  37
ODESSA         CLEAR     44  21  40 NW15      29.93R WCI  37
PECOS          CLEAR     45  25  45 W17G23    29.99  WCI  37
PRESIDIO       FAIR      44  25  47 SW9       30.10R WCI  39
SEMINOLE       CLEAR     39  25  56 NW10      29.93R WCI  32
SNYDER         CLEAR     45  35  68 NW18G28   29.81R WCI  37
WINK           CLEAR     42  22  44 W15       29.95R WCI  34
$$
...OTHER STATIONS IN TEXAS...

CITY           SKY/WX    TMP DP  RH WIND       PRES   REMARKS
ABILENE        CLOUDY    49  39  68 NW23G35   29.72R
AMARILLO       CLEAR     34  32  92 NW16      29.84R WCI  24
AUSTIN         PTCLDY    60  29  30 W18G36    29.63R
BROWNSVILLE    CLEAR     58  41  53 SW5       29.84R
CORPUS CHRISTI CLEAR     62  26  25 W23G29    29.78R
DALLAS FTW     PTCLDY    52  39  61 W18G25    29.46R
DEL RIO        CLEAR     56  25  30 W24G33    29.87R
EL PASO        CLEAR     39  25  57 W22G30    30.11R WCI  29
HOUSTON INT    PTCLDY    58  34  40 W12G20    29.57R
LUBBOCK        PTCLDY    38  32  79 NW18      29.84R WCI  28
SAN ANGELO     CLEAR     49  28  44 W24G32    29.81R
SAN ANTONIO    CLEAR     58  25  28 W28G41    29.71R
WACO           CLOUDY    56  42  59 W20G28    29.52R
WICHITA FALLS  NOT AVBL
$$
...OTHER LOCATIONS IN NEW MEXICO...

CITY           SKY/WX    TMP DP  RH WIND       PRES   REMARKS
ALAMAGORDO     CLOUDY    36  21  55 NE12      30.09R WCI  27
ALBUQUERQUE    CLOUDY    29  21  72 S6        30.10R WCI  23
CANNON AFB     CLEAR     33  27  78 NW14      29.89R WCI  23
CLOVIS         CLEAR     30  23  74 W6        29.89R WCI  24
HOLLOMAN AFB   CLEAR     31  24  76 NE7       30.12R WCI  24
ROSWELL        CLEAR     43  18  36 NW16G24   29.92R WCI  35
RUIDOSO        CLOUDY    25  16  68 N10G17    30.01R WCI  15
SANTA FE       CLEAR     26  19  74 CALM      30.02R
TRUTH OR CONSE CLEAR     34  19  54 NW16      30.11R WCI  24
TUCUMCARI      CLEAR     31  24  75 W10       29.89R WCI  22
$$